CW5670 Coupeville WA US current weather conditions

sailwx.info

Wind from 157 at 4 knots gusting 10

Air temperature 10.0° C
Dewpoint 8.1° C

Last reported at 2019-Dec-12 15:30 UTC.
Time now 2019-Dec-13 12:43 UTC

Location: N 48°13' W 122°41'.
View on Google Maps.

See reports from other nearby stations

  
Tides and Currents Weather Stations Pressure Air Temp Water Temp Dewpoint Dewpoint Depression Visibility Wind Speed Wind Dir Waves Ship Positions
date/time (UTC)wind fromknots sea level pressurealtimeterstation pressurevisibilityair tempwater tempwave heightnotes
2019-Dec-12 15:30 157 4 gusting 10 10.0
2019-Dec-12 15:15 176 4 gusting 7 10.0
2019-Dec-12 14:45 161 3 gusting 7 10.0
2019-Dec-12 14:35 163 5 gusting 10 10.0
2019-Dec-12 14:30 161 4 gusting 10 9.4
2019-Dec-12 14:10 162 3 gusting 8 10.0
2019-Dec-12 14:00 166 5 gusting 8 10.0
2019-Dec-12 13:35 184 2 gusting 10 9.4
2019-Dec-12 13:15 169 4 gusting 7 9.4
2019-Dec-12 13:05 164 3 gusting 6 8.9
2019-Dec-12 12:45 146 3 gusting 5 8.9
2019-Dec-12 12:35 112 0 gusting 2 8.9
2019-Dec-12 12:15 164 3 gusting 6 9.4
2019-Dec-12 12:05 199 2 gusting 4 9.4
2019-Dec-12 11:35 156 3 gusting 6 9.4
2019-Dec-12 11:10 151 3 gusting 7 9.4
2019-Dec-12 11:05 170 2 gusting 6 9.4
2019-Dec-12 10:45 195 2 gusting 5 9.4
2019-Dec-12 10:30 184 3 gusting 8 9.4
2019-Dec-12 10:15 166 5 gusting 7 10.0
2019-Dec-12 10:05 194 4 gusting 10 10.0
2019-Dec-12 09:45 191 4 gusting 8 10.0
2019-Dec-12 09:35 189 4 gusting 13 10.0
2019-Dec-12 09:15 166 4 gusting 10 10.6
2019-Dec-12 09:00 190 6 gusting 13 10.6
2019-Dec-12 08:45 173 8 gusting 13 10.6
2019-Dec-12 08:35 166 7 gusting 14 10.6
2019-Dec-12 08:15 203 7 gusting 22 10.6
2019-Dec-12 08:05 175 6 gusting 17 10.6
2019-Dec-12 07:45 172 10 gusting 17 10.6
2019-Dec-12 07:30 145 9 gusting 19 10.6
2019-Dec-12 07:05 147 7 gusting 17 10.6
2019-Dec-12 06:45 151 6 gusting 20 10.6
2019-Dec-12 06:35 141 12 gusting 18 10.6
2019-Dec-12 06:15 155 8 gusting 15 10.6
2019-Dec-12 06:00 120 8 gusting 21 10.6
2019-Dec-12 05:45 143 10 gusting 19 11.1
2019-Dec-12 05:30 158 12 gusting 19 10.6
2019-Dec-12 05:15 131 11 gusting 17 10.6
2019-Dec-12 05:05 140 7 gusting 17 10.6
2019-Dec-12 04:45 125 10 gusting 17 10.6
2019-Dec-12 04:35 134 8 gusting 19 10.6
2019-Dec-12 04:10 139 8 gusting 17 10.6
2019-Dec-12 04:05 144 8 gusting 17 10.6
2019-Dec-12 03:40 143 10 gusting 17 11.1
2019-Dec-12 03:35 143 10 gusting 24 11.1
2019-Dec-12 03:15 124 9 gusting 20 11.1
2019-Dec-12 03:05 155 8 gusting 17 11.1
2019-Dec-12 02:45 143 8 gusting 20 11.1
2019-Dec-12 02:35 146 9 gusting 24 11.1
2019-Dec-12 02:15 142 11 gusting 21 11.1
2019-Dec-12 02:05 155 6 gusting 17 11.1
2019-Dec-12 01:45 140 14 gusting 25 11.1
2019-Dec-12 01:30 131 12 gusting 25 11.1
2019-Dec-12 01:15 151 13 gusting 24 11.1
2019-Dec-12 01:05 146 11 gusting 24 11.1
2019-Dec-12 00:45 154 7 gusting 18 11.1
2019-Dec-12 00:35 154 9 gusting 17 11.1
2019-Dec-12 00:05 187 7 gusting 17 11.1
2019-Dec-11 23:45 171 8 gusting 18 11.1
2019-Dec-11 23:35 187 6 gusting 15 11.1
2019-Dec-11 23:15 167 8 gusting 17 11.1
2019-Dec-11 23:10 154 7 gusting 17 11.1
2019-Dec-11 23:05 177 7 gusting 18 11.1
2019-Dec-11 23:00 169 8 gusting 17 11.1
2019-Dec-11 22:45 152 10 gusting 17 11.1
2019-Dec-11 22:35 141 6 gusting 17 11.1
2019-Dec-11 22:15 159 10 gusting 17 11.1
2019-Dec-11 22:05 162 7 gusting 19 11.1
2019-Dec-11 21:45 123 8 gusting 20 11.1
2019-Dec-11 21:35 127 7 gusting 21 11.1
2019-Dec-11 21:15 131 6 gusting 15 10.6
2019-Dec-11 21:00 139 9 gusting 19 10.6
2019-Dec-11 20:45 125 8 gusting 20 10.6
2019-Dec-11 20:35 123 9 gusting 13 10.6
2019-Dec-11 20:10 144 7 gusting 14 10.6
2019-Dec-11 20:00 124 6 gusting 15 10.6
2019-Dec-11 19:45 130 8 gusting 13 10.6
2019-Dec-11 19:05 123 4 gusting 7 10.6
2019-Dec-11 18:45 119 2 gusting 5 10.6
2019-Dec-11 18:30 125 3 gusting 6 10.6
2019-Dec-11 18:15 143 2 gusting 6 10.6
2019-Dec-11 18:05 137 4 gusting 10 10.0
2019-Dec-11 17:45 101 5 gusting 11 10.0
2019-Dec-11 17:30 117 5 gusting 11 10.0
2019-Dec-11 17:15 103 4 gusting 12 10.0
2019-Dec-11 17:05 123 4 gusting 7 10.0
2019-Dec-11 17:00 148 6 gusting 13 10.0
2019-Dec-11 16:45 124 4 gusting 8 10.0
2019-Dec-11 16:05 110 5 gusting 10 10.0
2019-Dec-11 15:45 105 2 gusting 10 9.4
2019-Dec-11 15:15 124 0 gusting 2 9.4
2019-Dec-11 15:11 117 1 gusting 4 9.4
2019-Dec-11 15:00 118 1 gusting 5 9.4
2019-Dec-11 14:40 061 1 gusting 2 9.4
2019-Dec-11 14:35 103 1 gusting 2 9.4
2019-Dec-11 14:15 113 1 gusting 2 9.4
2019-Dec-11 14:05 146 1 gusting 2 9.4
2019-Dec-11 13:45 120 2 gusting 4 9.4
2019-Dec-11 13:15 109 1 gusting 2 9.4
2019-Dec-11 13:05 093 1 gusting 2 9.4
2019-Dec-11 12:45 105 1 gusting 4 9.4
2019-Dec-11 12:35 102 2 gusting 2 9.4
2019-Dec-11 12:10 097 0 gusting 2 9.4
2019-Dec-11 12:05 090 1 gusting 2 9.4
2019-Dec-11 12:00 088 1 gusting 4 9.4